Hors Challenge

Le Houppy Trail - Profondeville (20.00 km)

dimanche 23 août 2020

Le Classement original se trouve sur : http://www.chronorace.be
 
LE HOUPPY TRAIL - PROFONDEVILLE
DISTANCE : 19.04 km
dimanche 23 août 2020
 
Place Dos NOM Pays Catégorie Pl/cat temps temps/km Vitesse
1 1465 ROLIN BORIS BEL SH 1 01:29:57 04:43 12.70
2 1540 PAHOS ANDREAS UZB SH 2 01:30:14 04:44 12.66
3 775 LEYENS PIERRE BEL V1 1 01:31:51 04:49 12.44
4 1459 GOSSIAUX RENAN BEL SH 3 01:33:30 04:55 12.22
5 973 VAN DE MEERSSCHE JÉRÔME BEL V1 2 01:33:33 04:55 12.21
6 1388 ETIENNE FABRICE BEL V2 1 01:35:53 05:02 11.91
7 1508 FABRE FLORIAN FRA SH 4 01:36:31 05:04 11.84
8 1295 BOCH VALENTIN BEL SH 5 01:37:06 05:06 11.76
9 1203 TILMANT GRÉGOIRE BEL SH 6 01:39:52 05:15 11.44
10 948 CHARLIER ALAIN BEL V2 2 01:41:47 05:21 11.22
11 949 CHARLIER ARTHUR BEL SH 7 01:41:47 05:21 11.22
12 1414 DE VLEESCHAUWER DIMITRI BEL SH 8 01:42:40 05:24 11.13
13 1353 KAISEN OLIVIER BEL SH 9 01:42:54 05:24 11.10
14 447 ROTHELIN JÉRÔME BEL SH 10 01:42:54 05:24 11.10
15 1405 ANTOINE ROUVROY BEL SH 11 01:42:58 05:24 11.09
16 1442 SALMIN LOÏC BEL SH 12 01:43:05 05:25 11.08
17 947 DU BOIS PIERRE-YVES BEL SH 13 01:45:03 05:31 10.87
18 706 ZANIER LAURENT BEL V1 3 01:47:27 05:39 10.63
19 797 XXX BEL SH 14 01:47:45 05:40 10.60
20 805 DE RIJDT MATHIEU BEL SH 15 01:47:49 05:40 10.60
21 1449 PIERARD ALEXANDRE BEL V1 4 01:47:50 05:40 10.59
22 711 DE RIJDT THIBAULT BEL SH 16 01:47:50 05:40 10.59
23 514 DEBORTOLI NICOLAS BEL SH 17 01:48:30 05:42 10.53
24 622 LHERMITTE IGOR BEL SH 18 01:49:00 05:43 10.48
25 474 MICHEL CHRISTOPHER BEL SH 19 01:49:08 05:44 10.47
26 760 THOMAS FLORIAN BEL SH 20 01:49:55 05:46 10.39
27 1429 MEUNIER VINCENT BEL SH 21 01:50:55 05:50 10.30
28 1476 LESAGE FRANÇOIS BEL SH 22 01:50:57 05:50 10.30
29 1144 CREMER GILLES BEL SH 23 01:51:32 05:51 10.24
30 1421 DESMET DAMIEN BEL SH 24 01:51:47 05:52 10.22
31 1416 VAN HAEVERMAET JASPER BEL SH 25 01:52:00 05:53 10.20
32 438 SEVILLA CRISTIAN ESP V1 5 01:52:15 05:54 10.18
33 722 HAVRENNE JONATHAN BEL SH 26 01:52:29 05:54 10.16
34 1191 LERAT FRÉDÉRIC BEL V1 6 01:52:31 05:55 10.15
35 1527 PINCHART MICHAEL BEL V1 7 01:53:55 05:59 10.03
36 1434 DESSY VALENTIN BEL SH 27 01:55:15 06:03 9.91
37 515 WILLEMART KÉVIN BEL SH 28 01:55:17 06:03 9.91
38 1423 MALENGREAUX BENJAMIN BEL SH 29 01:55:24 06:04 9.90
39 624 DEFRANCE SÉBASTIEN BEL V1 8 01:56:22 06:07 9.82
40 295 LANNERS PATRICK BEL V1 9 01:56:28 06:07 9.81
41 1116 COSSE MATHIEU BEL SH 30 01:56:36 06:07 9.80
42 980 BLAMPAIN RONALD BEL SH 31 01:56:42 06:08 9.79
43 185 TIMMERMAN CHRISTOPHER BEL SH 32 01:56:46 06:08 9.78
44 1127 VANDEWOESTYNE BART BEL V1 10 01:57:12 06:09 9.75
45 1542 FRIPIAT BERNARD BEL V1 11 01:57:16 06:10 9.74
46 1441 ADRIOUCHI ABDELILAH BEL SH 33 01:57:22 06:10 9.73
47 414 ROQUET RAPHAËL BEL V1 12 01:57:31 06:10 9.72
48 1184 BOREUX THOMAS BEL SH 34 01:57:43 06:11 9.70
49 1391 VANDERZWALMEN SABINE BEL A1 1 01:57:50 06:11 9.69
50 768 FRERE SEBASTIEN BEL SH 35 01:57:53 06:11 9.69
51 1577 FLAMEN PATRICE BEL V1 13 01:58:09 06:12 9.67
52 518 COBUT JÉRÔME BEL V1 14 01:58:13 06:13 9.66
53 935 VAN BRUSSEL OLIVIER BEL V1 15 01:58:49 06:14 9.61
54 1338 TILMANS GUILLAUME BEL JH 1 01:59:36 06:17 9.55
55 430 FERRETTI FABIAN BEL V1 16 01:59:48 06:18 9.54
56 1150 THIRY MAXIME BEL SH 36 02:00:13 06:19 9.50
57 712 LEJEUNE CHRISTOPHE BEL V2 3 02:00:14 06:19 9.50
58 803 FOSSION JONAS BEL SH 37 02:00:28 06:20 9.48
59 827 VAST BRUNO BEL SH 38 02:00:28 06:20 9.48
60 742 CASSART CLÉMENT BEL V1 17 02:00:29 06:20 9.48
61 913 DONNAY CÉDRIC BEL V1 18 02:00:33 06:20 9.48
62 463 WENDERS STEPHANE BEL V1 19 02:00:35 06:20 9.47
63 905 STAQUET ARNAUD BEL SH 39 02:00:35 06:20 9.47
64 1133 DEMOEN GRÉGORY BEL SH 40 02:00:37 06:20 9.47
65 184 DELSIPEE DAVID BEL V1 20 02:00:40 06:20 9.47
66 861 BONTEMPS RAY BEL V1 21 02:00:58 06:21 9.44
67 1355 HENRION LUDIVINE BEL SD 1 02:01:26 06:23 9.41
68 1408 VAN ELSEN FREDERIC BEL SH 41 02:01:54 06:24 9.37
69 547 DULON OLIVIER BEL V2 4 02:01:58 06:24 9.37
70 1560 MERTENS RAPHAEL BEL V1 22 02:02:12 06:25 9.35
71 1382 POTIER FRÉDÉRIC BEL V1 23 02:02:35 06:26 9.32
72 940 SCHOTTE PHILIPPE BEL V1 24 02:02:54 06:27 9.30
73 972 JONCHÈRE JÉRÉMIE FRA SH 42 02:03:04 06:28 9.28
74 718 HOUDART KEVIN BEL SH 43 02:03:10 06:28 9.27
75 719 VAN POUCKE CÈDRIC BEL SH 44 02:03:12 06:28 9.27
76 1143 HOFF GRÉGORY FRA SH 45 02:03:42 06:30 9.23
77 690 DEGREZ FRANÇOIS BEL SH 46 02:04:01 06:31 9.21
78 1409 LEKEU VALÉRY BEL V1 25 02:04:03 06:31 9.21
79 462 DE SMET FILIP BEL V2 5 02:04:14 06:32 9.20
80 1399 JACQMAIN RUDY BEL V1 26 02:04:16 06:32 9.19
81 1324 JACQUY BENOIT BEL SH 47 02:04:25 06:32 9.18
82 1321 BOTTRIAUX FRANCOIS BEL SH 48 02:04:25 06:32 9.18
83 1438 LECAT NATHALIE BEL A1 2 02:04:26 06:32 9.18
84 1439 MALCOURANT CYRILLE BEL V1 27 02:04:26 06:32 9.18
85 1572 CHRISTOPHE THOMAS BEL SH 49 02:04:36 06:33 9.17
86 472 LORANT MANU BEL V2 6 02:04:43 06:33 9.16
87 1433 BATTOIA LOGAN BEL SH 50 02:04:55 06:34 9.15
88 902 COLOT BJORN BEL V1 28 02:04:58 06:34 9.14
89 1541 COLINET BENOÎT BEL V1 29 02:05:03 06:34 9.14
90 975 HOLDERBEKE YOURI BEL V1 30 02:05:11 06:34 9.13
91 308 MAUREL FRÉDÉRIC FRA SH 51 02:05:24 06:35 9.11
92 309 VAN MIEGHEM TOM BEL SH 52 02:05:28 06:35 9.10
93 300 COUNE JEROME BEL SH 53 02:05:46 06:36 9.08
94 164 KAISER SIMON BEL SH 54 02:06:05 06:37 9.06
95 801 DUBREUCQ AURÉLIEN BEL SH 55 02:06:28 06:39 9.03
96 1352 THOLL JEAN-PHILIPPE BEL V1 31 02:06:42 06:39 9.02
97 790 CAPELLE CORALINE BEL SD 2 02:07:05 06:40 8.99
98 485 VANDERHEYDEN LIONEL BEL SH 56 02:07:19 06:41 8.97
99 1524 WAUTERS VINCIANE BEL SD 3 02:07:32 06:42 8.96
100 1376 MARICHAL JOANS BEL SH 57 02:07:35 06:42 8.95
101 1415 DELCOURT VIRGILE BEL SH 58 02:07:37 06:42 8.95
102 1383 CIMINO ARMANDO BEL V1 32 02:07:44 06:43 8.94
103 695 DIEUDONNE MICHEL BEL V2 7 02:07:47 06:43 8.94
104 1122 BORRÉ CHRIS BEL V1 33 02:07:57 06:43 8.93
105 1596 FONTAINE GILLES BEL SH 59 02:08:06 06:44 8.92
106 727 BREUWER JONATHAN BEL SH 60 02:08:22 06:45 8.90
107 703 WEYKMANS SÉBASTIEN BEL V1 34 02:08:49 06:46 8.87
108 687 HENRION LUDIVINE BEL SD 4 02:08:55 06:46 8.86
109 1422 OGER STEPHAN BEL SH 61 02:09:01 06:47 8.85
110 1381 LAMON FRÉDÉRIC BEL V1 35 02:09:05 06:47 8.85
111 682 VAN NIEUWENHOVE TANGUY BEL SH 62 02:09:10 06:47 8.84
112 692 HOCQUET ADRIEN BEL SH 63 02:09:11 06:47 8.84
113 691 MARCHAL CYRIL BEL SH 64 02:09:12 06:47 8.84
114 889 LEJEUNE PATRICK BEL SH 65 02:09:22 06:48 8.83
115 1331 COLARD FRANÇOIS BEL V1 36 02:09:24 06:48 8.83
116 625 DE BEER SIMON BEL SH 66 02:09:41 06:49 8.81
117 1471 VANEQUAIRE NICOLAS BEL SH 67 02:09:48 06:49 8.80
118 860 GOBLET MATTHIEU BEL SH 68 02:10:22 06:51 8.76
119 513 COLLARD JULIEN BEL SH 69 02:10:25 06:51 8.76
120 1396 CHRISTOPHE EMILIE BEL SD 5 02:10:29 06:51 8.75
121 1573 CHRISTOPHE CÉLINE BEL SD 6 02:10:29 06:51 8.75
122 1578 ROVELLI SAMUEL BEL SH 70 02:11:02 06:53 8.72
123 707 BREL JONATHAN BEL SH 71 02:11:03 06:53 8.72
124 685 ROCOUR BERTRAND BEL SH 72 02:11:13 06:54 8.71
125 1492 PIROT ANAÏS BEL SD 7 02:11:15 06:54 8.70
126 761 LAGAE ALEXIS BEL V1 37 02:11:26 06:54 8.69
127 1006 DE WASSEIGE DIDIER BEL SH 73 02:12:04 06:56 8.65
128 1520 LANGELEZ OLIVIER BEL V1 38 02:12:49 06:59 8.60
129 867 DELBROUCK YANNICK BEL V1 39 02:13:18 07:00 8.57
130 1189 LANNOO MICHAEL BEL V1 40 02:14:02 07:02 8.52
131 1387 JALLET PIERRE BEL SH 74 02:14:09 07:03 8.52
132 932 POULIN CHRISTOPHE BEL V1 41 02:14:23 07:03 8.50
133 1181 KESTEMONT CLELIA BEL SD 8 02:14:49 07:05 8.47
134 1265 SIMON DIMITRI BEL V2 8 02:14:50 07:05 8.47
135 281 PYCKE JONATHAN BEL SH 75 02:14:58 07:05 8.46
136 280 BENATS CHRISTOPHE BEL V1 42 02:15:00 07:05 8.46
137 643 HEYNE OLIVIER BEL SH 76 02:15:02 07:06 8.46
138 942 DESSEILLE ERNEST BEL V3 1 02:15:15 07:06 8.45
139 728 PIOTROWSKI DIDIER FRA V2 9 02:15:21 07:07 8.44
140 1117 FONTAINE ELISE BEL SD 9 02:15:22 07:07 8.44
141 1359 DE WACHTER JEAN-FRANÇOIS BEL V2 10 02:15:34 07:07 8.43
142 440 KINKIN NICOLAS BEL SH 77 02:15:35 07:07 8.43
143 278 DE WITTE FRÉDÉRIC BEL V1 43 02:15:42 07:08 8.42
144 955 VERSTAEN SÉBASTIEN BEL SH 78 02:15:50 07:08 8.41
145 1028 COP THOMAS BEL SH 79 02:15:57 07:08 8.40
146 1253 HUBIN TOM BEL SH 80 02:16:23 07:10 8.38
147 813 ROSMAN JEAN-YVES BEL SH 81 02:16:34 07:10 8.36
148 464 LAFFINEUR AMAURY BEL SH 82 02:16:42 07:11 8.36
149 756 LESEINE KEVIN BEL V1 44 02:16:44 07:11 8.35
150 748 DEREYMAEKER BENOIT BEL V1 45 02:16:45 07:11 8.35
151 1565 MARENNE FLAVIEN BEL SH 83 02:16:55 07:11 8.34
152 1521 DENDAL DIDIER BEL V2 11 02:17:03 07:12 8.34
153 1491 BOSSE OLIVIER BEL V1 46 02:17:13 07:12 8.33
154 512 RAULIN ADRIEN BEL SH 84 02:17:21 07:13 8.32
155 269 BADOUX ALEXANDRE BEL SH 85 02:17:30 07:13 8.31
156 1254 DÉMOULIN LUCAS BEL SH 86 02:17:35 07:14 8.30
157 1516 HERMAND VANESSA BEL A1 3 02:17:39 07:14 8.30
158 1472 GODEAUX SAMUEL BEL SH 87 02:17:45 07:14 8.29
159 1543 GAUDIN ANAÏS BEL SD 10 02:18:30 07:16 8.25
160 471 DESILLE JÉRÉMIE BEL V1 47 02:18:40 07:17 8.24
161 616 ORBAN PIERRE BEL SH 88 02:18:56 07:18 8.22
162 263 DE CEUKELAIRE WIM BEL V2 12 02:18:59 07:18 8.22
163 470 PEPIN CEDRIC BEL V1 48 02:19:14 07:19 8.20
164 1528 BERGER THIERRY BEL V2 13 02:19:18 07:19 8.20
165 1583 PIROT QUENTIN BEL SH 89 02:19:20 07:19 8.20
166 1059 ROSART THOMAS BEL SH 90 02:19:34 07:20 8.19
167 1599 HENRARD FREDERIC BEL V1 49 02:19:35 07:20 8.18
168 429 ZEERARDS QUENTIN BEL SH 91 02:19:53 07:21 8.17
169 1531 STUHLMANN ANNE DEU SD 11 02:19:58 07:21 8.16
170 770 LACROIX LOGAN BEL SH 92 02:20:16 07:22 8.14
171 469 GOSSIAUX RÉMI BEL SH 93 02:20:26 07:23 8.13
172 500 PUFFET DENIS BEL SH 94 02:20:36 07:23 8.12
173 1328 TILMANS RENAUD BEL V2 14 02:20:48 07:24 8.11
174 1305 MONTEGNIES MARYLÈNE BEL SD 12 02:20:51 07:24 8.11
175 262 VERBAUWHEDE MICHAEL BEL SH 95 02:21:23 07:26 8.08
176 802 CAUDRON ANTOINE BEL V1 50 02:21:24 07:26 8.08
177 1169 BARON LUDOVIC FRA V1 51 02:21:30 07:26 8.07
178 796 SCHICKS YVES BEL V1 52 02:21:56 07:27 8.05
179 439 DESSOY ARNAUD BEL SH 96 02:22:03 07:28 8.04
180 1455 FONTAINE CINDY BEL SD 13 02:22:10 07:28 8.04
181 953 SALMON LUC BEL V1 53 02:22:27 07:29 8.02
182 952 DEGIVE XAVIER BEL SH 97 02:22:29 07:29 8.02
183 750 SANDERS NICOLAS BEL SH 98 02:22:35 07:29 8.01
184 1175 VAN TICHELEN BAPTISTE BEL SH 99 02:23:03 07:31 7.99
185 285 BERNARD AXEL BEL V1 54 02:23:11 07:31 7.98
186 173 FLAMENT PATRICE BEL V1 55 02:23:16 07:31 7.97
187 1174 VAN TICHELEN BENOIT BEL A2 1 02:23:37 07:33 7.95
188 702 HUPPERTZ GAETAN BEL V1 56 02:23:55 07:34 7.94
189 1171 VAN YCK CHRISTOPHE BEL V1 57 02:23:59 07:34 7.93
190 926 HENRARD JÉRÔME BEL SH 100 02:24:14 07:35 7.92
191 1316 ROBILLARD THIBERT BEL V3 2 02:24:22 07:35 7.91
192 767 MONNE DAVIDE BEL V1 58 02:24:31 07:35 7.90
193 637 BERNARD GAËTAN BEL V1 59 02:24:31 07:35 7.90
194 466 CAMMAERTS NICOLAS BEL V1 60 02:24:47 07:36 7.89
195 1483 POTY GAETAN BEL V1 61 02:24:58 07:37 7.88
196 618 BOLLENS BENJAMIN BEL SH 101 02:25:05 07:37 7.87
197 747 VANDER STRICHT LOIC BEL SH 102 02:25:09 07:37 7.87
198 762 ETIENNE JULIEN BEL V1 62 02:25:41 07:39 7.84
199 1078 DASSY HELENE BEL SD 14 02:26:08 07:41 7.82
200 1077 ERNOUX STÉPHANIE BEL SD 15 02:26:08 07:41 7.82
201 1075 SONNET BENJAMIN BEL SH 103 02:26:21 07:41 7.81
202 648 PLENNEVAUX FLORENT BEL SH 104 02:26:37 07:42 7.79
203 754 LEGROS NICOLAS BEL SH 105 02:26:38 07:42 7.79
204 1002 CHARLES RENAUD BEL SH 106 02:26:44 07:42 7.79
205 709 GRAUMANN FREDERIC BEL V1 63 02:27:04 07:43 7.77
206 416 HERMANT PHILIPPE BEL V1 64 02:27:16 07:44 7.76
207 1435 PHILIPPART ROBERT BEL V1 65 02:27:22 07:44 7.75
208 167 MORELLE JEROME BEL SH 107 02:27:27 07:45 7.75
209 1198 VAN'T WESTEINDE MARGAUX BEL SD 16 02:27:35 07:45 7.74
210 708 PLACE JOHN BEL V2 15 02:27:51 07:46 7.73
211 1064 KIVITS GENEVIEVE BEL A1 4 02:27:53 07:46 7.72
212 1055 SQUILBIN OLIVIER BEL V1 66 02:27:56 07:46 7.72
213 487 ESPEL GEOFFREY BEL SH 108 02:27:58 07:46 7.72
214 1329 FALMAGNE CHARLES BEL JH 2 02:28:09 07:47 7.71
215 1058 LAUS RAFFAELE BEL SH 109 02:28:25 07:48 7.70
216 392 AERTS ALAIN BEL V2 16 02:28:27 07:48 7.70
217 1558 DE MEUE KRISTOFF BEL V1 67 02:28:32 07:48 7.69
218 1519 BELANGER ISABELLE BEL A2 2 02:28:54 07:49 7.67
219 492 CASTELIN PIERRE BEL V1 68 02:29:02 07:50 7.67
220 1310 MATHIEU CÉDRIC BEL SH 110 02:29:08 07:50 7.66
221 1315 MICHEL SEBASTIEN BEL SH 111 02:29:09 07:50 7.66
222 1308 BEAUFAYS CHRISTOPHE BEL SH 112 02:29:10 07:50 7.66
223 170 DALLA CORTE LUDOVIC BEL SH 113 02:29:17 07:50 7.65
224 516 ISLAMGAZIN ILDAR RUS SH 114 02:29:20 07:51 7.65
225 816 MARTIN CAROLINE BEL A1 5 02:29:45 07:52 7.63
226 647 PLENNEVAUX AMÉLIE BEL SD 17 02:29:54 07:52 7.62
227 1563 DUTRIEUX RONALD BEL V2 17 02:29:55 07:52 7.62
228 1009 BASTIEN BENOIT BEL V2 18 02:30:07 07:53 7.61
229 1579 DAMAR ANNE-CECILE BEL A1 6 02:30:08 07:53 7.61
230 1584 FABRY STÉPHANIE BEL A1 7 02:30:09 07:53 7.61
231 1580 LATIERS MELANIE BEL A1 8 02:30:09 07:53 7.61
232 1199 PEETERS ERIC BEL V1 69 02:30:10 07:53 7.61
233 1330 COLARD RAPHAËL BEL V1 70 02:30:44 07:55 7.58
234 287 CORNET ROBIN BEL SH 115 02:30:57 07:56 7.57
235 1021 LOUIS VIRGINIE BEL A1 9 02:31:02 07:56 7.56
236 412 LAMBEAUX OLIVIER BEL V1 71 02:31:47 07:58 7.53
237 1091 TASIAUX FLORE BEL SD 18 02:31:51 07:59 7.52
238 1092 PETIT JAUMA BEL SH 116 02:31:52 07:59 7.52
239 1132 DE KUYSSCHER LYDIA BEL A1 10 02:33:25 08:03 7.45
240 1134 MASURE ALEXANDRE BEL V2 19 02:33:26 08:04 7.45
241 1017 CAISE EVA BEL A1 11 02:33:26 08:04 7.45
242 475 FRANÇOIS NICOLAS BEL V1 72 02:33:26 08:04 7.45
243 1018 DANDOIS YANNICK BEL V1 73 02:33:29 08:04 7.44
244 324 PETE ELISABETH BEL A1 12 02:33:40 08:04 7.43
245 1070 LORFÈVRE BERTRAND BEL SH 117 02:35:52 08:11 7.33
246 764 LAZARON DIMITRI BEL V1 74 02:35:58 08:12 7.32
247 1147 BOTTIN GAETAN BEL V1 75 02:36:27 08:13 7.30
248 1148 VANHERCK RUDI BEL V2 20 02:36:28 08:13 7.30
249 794 CASTIAUX WENDY BEL SD 19 02:37:01 08:15 7.28
250 974 ROLIN CHRISTOPHE BEL V1 76 02:37:08 08:15 7.27
251 944 DE MENTEN CENDRINE BEL SD 20 02:37:08 08:15 7.27
252 1397 BAYET JACQUES BEL V2 21 02:37:09 08:15 7.27
253 1398 WARIN CORINNE BEL A2 3 02:37:10 08:15 7.27
254 1360 KEYSER CHRISTIAN BEL V3 3 02:37:24 08:16 7.26
255 312 PEPINSTER NICOLAS BEL SH 118 02:37:43 08:17 7.24
256 316 VERHAEGHE AURÉLIEN BEL SH 119 02:37:44 08:17 7.24
257 1427 CHRISTIAENS CHRISTOPHE BEL V1 77 02:38:20 08:19 7.21
258 866 DUPONT MAGALI BEL A1 13 02:38:22 08:19 7.21
259 862 KIVITS SANDRINE BEL A1 14 02:38:24 08:19 7.21
260 1053 HEBETTE JUSTIN BEL SH 120 02:38:37 08:20 7.20
261 634 LECOMTE THIBAUT BEL SH 121 02:38:39 08:20 7.20
262 1052 MAROT ANNE BEL SD 21 02:38:40 08:20 7.20
263 1139 NAUWELAERTS CLAIRE BEL SD 22 02:38:56 08:21 7.19
264 1138 BAILLEUX CÉLINE BEL SD 23 02:38:56 08:21 7.19
265 1140 CHENOT AURÉLIE BEL SD 24 02:39:00 08:21 7.18
266 700 JONATHAN BELLAIRE BEL V1 78 02:39:34 08:23 7.16
267 699 BIGARÉ GRÉGORY BEL V1 79 02:39:35 08:23 7.16
268 772 VANDERSTRAETEN PIERRE BEL V1 80 02:39:43 08:23 7.15
269 1386 DUPLAT ANNE BEL A1 15 02:39:44 08:23 7.15
270 859 MONTURIER JULIE BEL SD 25 02:40:01 08:24 7.14
271 1526 GEETS BERTRAND BEL V2 22 02:40:02 08:24 7.14
272 1060 DAVIN VASCO BEL JH 3 02:40:03 08:24 7.14
273 858 TINANT SYLVIE BEL A1 16 02:40:04 08:24 7.14
274 1262 DUBOIS NATHALIE BEL A2 4 02:40:22 08:25 7.12
275 1263 MEYS AURORE BEL A1 17 02:40:22 08:25 7.12
276 1494 MOREAU AURÉLIEN BEL SH 122 02:40:34 08:26 7.11
277 1515 DAUVIN BENJAMIN BEL V1 81 02:41:11 08:28 7.09
278 897 VANDENBOSCH MICHEL BEL V1 82 02:41:23 08:29 7.08
279 419 MINETTE MARIE BEL SD 26 02:41:42 08:30 7.06
280 950 EL IRAKI NAIMA BEL SD 27 02:41:46 08:30 7.06
281 415 VUEGEN FRÉDÉRIC BEL SH 123 02:41:47 08:30 7.06
282 1582 MILLET ANNE-CATHERINE BEL A1 18 02:43:13 08:34 7.00
283 1581 GRANADOS CHAPATTE ANA ESP A1 19 02:43:14 08:34 7.00
284 811 HORIDOR STEPHAN BEL V2 23 02:43:57 08:37 6.97
285 1351 THOLL MARIE-GABRIELLE BEL A1 20 02:44:07 08:37 6.96
286 891 EVRARD ETIENNE BEL V1 83 02:44:49 08:39 6.93
287 1277 LETERME VANESSA BEL A1 21 02:45:37 08:42 6.90
288 1276 LEBLON MARC BEL V1 84 02:45:42 08:42 6.89
289 868 JADOUL DONATIENNE BEL SD 28 02:46:17 08:44 6.87
290 869 VAN BILSEN GERALDINE BEL SD 29 02:46:19 08:44 6.87
291 998 MEERSMAN JONATHAN BEL V1 85 02:47:22 08:47 6.83
292 1039 DE PICKER PETER BEL V2 24 02:47:30 08:48 6.82
293 997 VINCENT MAXIME BEL SH 124 02:47:30 08:48 6.82
294 1040 HANOT ISABELLE BEL A2 5 02:47:31 08:48 6.82
295 548 VAN HESPEN BENOÎT BEL V2 25 02:48:18 08:50 6.79
296 753 LONGRÉE MARC BEL V2 26 02:48:39 08:51 6.77
297 752 PIRAUX ADELIN BEL V1 86 02:48:39 08:51 6.77
298 450 DELBROUCK SIMON BEL SH 125 02:49:18 08:54 6.75
299 545 GILLAIN ALAIN BEL V2 27 02:50:11 08:56 6.71
300 773 MALACHE CÉDRIC BEL V1 87 02:50:12 08:56 6.71
301 765 THOMAS VALÉRIE BEL A1 22 02:50:17 08:57 6.71
302 757 NOTTE CHRISTEL BEL A1 23 02:51:18 09:00 6.67
303 546 LEGROS FREDERIC BEL V1 88 02:51:49 09:01 6.65
304 1014 DEVILLE NICOLAS BEL SH 126 02:51:58 09:02 6.64
305 1015 DEVILLE PHILIPPE BEL V2 28 02:51:59 09:02 6.64
306 1587 DEBAIG CÉLINE FRA SD 30 02:54:28 09:10 6.55
307 838 DEMAIRE BARBARA BEL A1 24 02:54:29 09:10 6.55
308 1454 DEBAIG JULIEN FRA SH 127 02:54:29 09:10 6.55
309 1050 DAMANET ARTHUR BEL SH 128 02:54:35 09:10 6.54
310 1076 POCHET ANTOINE BEL SH 129 02:54:39 09:10 6.54
311 839 CHMIEL CHLOÉ BEL SD 31 02:54:43 09:11 6.54
312 1079 MATHIEU GAUVAIN BEL SH 130 02:54:46 09:11 6.54
313 1200 TOMBEUX FLORENCE BEL A1 25 02:56:04 09:15 6.49
314 517 GERARD MICHAEL BEL V1 89 02:56:32 09:16 6.47
315 1003 FAVAY LUCAS BEL V1 90 02:58:15 09:22 6.41
316 325 FOCANT CEDRIC BEL SH 131 02:58:30 09:23 6.40
317 327 SCOYER JULIEN BEL SH 132 02:58:42 09:23 6.39
318 1008 ANCIAUX LÉON MICHEL BEL V2 29 02:58:44 09:23 6.39
319 411 LEFEBRVE DIDIER BEL V1 91 02:59:37 09:26 6.36
320 766 DELCOURT SÉBASTIEN BEL SH 133 03:01:03 09:31 6.31
321 1022 LEMAIRE THOMAS BEL SH 134 03:01:08 09:31 6.31
322 759 PERINI GREGORY BEL SH 135 03:01:38 09:32 6.29
323 758 DIERICK LAURIE BEL SD 32 03:01:40 09:32 6.29
324 1585 CURRI SABRINA BEL A1 26 03:01:58 09:33 6.28
325 1031 HENRY STÉPHANE BEL V3 4 03:02:00 09:34 6.28
326 941 SCORIELS NATHALIE BEL A1 27 03:03:44 09:39 6.22
327 1005 DUVIVIER LAURENT BEL SH 136 03:05:20 09:44 6.16
328 497 GENDARME PHILIPPE BEL V2 30 03:08:25 09:54 6.06
329 467 DOSSCHE TOM BEL V2 31 03:14:18 10:12 5.88
330 1393 BERA BENJAMIN BEL SH 137 03:15:49 10:17 5.83
331 1395 RIGAUX CHRISTOPHE BEL V1 92 03:15:50 10:17 5.83
332 1196 DELFORGE AMANDINE BEL SD 33 03:16:40 10:20 5.81
333 872 MOREAU LORRAINE BEL A1 28 03:20:30 10:32 5.70
334 929 PONCELET CATHERINE BEL A1 29 03:22:07 10:37 5.65
335 696 BILLIET MÉLANIE BEL SD 34 03:23:48 10:42 5.61
336 697 DANDOIS YANNICK BEL V1 93 03:23:52 10:42 5.60
337 473 DURELLO VALÉRIE BEL A1 30 03:25:04 10:46 5.57
338 873 DEKOSTER STEPHANIE BEL SD 35 03:25:24 10:47 5.56
339 928 BOULANGER JEAN-MARIE BEL xxx   03:25:46 10:48 5.55
340 1358 DELHAYE FABIENNE BEL A2 6 03:26:33 10:51 5.53
341 1361 FRIPPIAT ALIX BEL A3 1 03:26:34 10:51 5.53
342 704 DUPREZ SYLVIE BEL A1 31 03:28:04 10:56 5.49
343 959 CALUS NATHANAEL BEL SH 138 03:28:04 10:56 5.49
344 871 LAROCHE CHARLOTTE BEL A1 32 03:30:07 11:02 5.44
345 1071 DECEULENEER CÉDRIC BEL SH 139 03:32:37 11:10 5.37
346 1072 EVANS LOIC BEL SH 140 03:32:37 11:10 5.37
347 277 GEERTS NANCY BEL A1 33 03:51:32 12:10 4.93
348 1001 COLLEAU SANDRA BEL A1 34 03:53:26 12:16 4.89
349 279 HUBOT AURÉLIE BEL SD 36 03:58:03 12:30 4.80
350 401 GENTEN ANGÉLIQUE BEL SD 37 04:03:45 12:48 4.69
351 171 FREISEN MONIQUE BEL A2 7 04:03:46 12:48 4.69
352 887 HERMAN BÉATRICE BEL A1 35 04:13:21 13:18 4.51
353 933 MAGNIEN PIERRE BEL SH 141 05:00:25 15:47 3.80
354 969 RULLAERT CÉCILE BEL A1 36 05:00:26 15:47 3.80